GW5935 Weather Reports


time (UTC)temp
F
wind
direction
speed
knots
gust
knots
rain 1hr
in
rain 24hr
in
rain mn
in
humidity
%
barometer
mb
20260906215005 89 111 4.3 10.4 0.00 0.00 0.00 31 1003.2
20260906214505 89 112 5.2 10.4 0.00 0.00 0.00 31 1003.3
20260906214006 89 120 4.3 8.7 0.00 0.00 0.00 30 1003.5
20260906213506 88 115 2.6 7.0 0.00 0.00 0.00 32 1003.6
20260906212506 87 121 6.1 10.4 0.00 0.00 0.00 36 1003.8
20260906212005 86 144 5.2 10.4 0.00 0.00 0.00 35 1003.9
20260906211505 87 77 3.5 8.7 0.00 0.00 0.00 35 1004.0
20260906210506 86 99 4.3 7.8 0.00 0.00 0.00 36 1004.1
20260906205506 88 122 4.3 10.4 0.00 0.00 0.00 33 1004.2
20260906204005 86 105 3.5 7.0 0.00 0.00 0.00 33 1004.5
20260906203505 87 134 2.6 7.8 0.00 0.00 0.00 33 1004.5
20260906203005 87 80 2.6 10.4 0.00 0.00 0.00 33 1004.6
20260906202505 88 123 2.6 7.0 0.00 0.00 0.00 33 1004.7
20260906202005 88 87 2.6 8.7 0.00 0.00 0.00 31 1004.7
20260906201505 88 73 2.6 7.0 0.00 0.00 0.00 32 1004.8
20260906201005 88 94 4.3 7.0 0.00 0.00 0.00 30 1004.9
20260906200506 90 103 2.6 11.3 0.00 0.00 0.00 29 1004.9
20260906195505 89 149 2.6 10.4 0.00 0.00 0.00 30 1005.0
20260906195005 90 158 6.1 10.4 0.00 0.00 0.00 30 1005.2
20260906194505 90 165 2.6 10.4 0.00 0.00 0.00 29 1005.3
20260906194005 90 131 4.3 10.4 0.00 0.00 0.00 30 1005.4
20260906193506 90 147 4.3 10.4 0.00 0.00 0.00 30 1005.5
20260906193005 89 85 1.7 5.2 0.00 0.00 0.00 30 1005.4
20260906192505 89 109 2.6 6.1 0.00 0.00 0.00 30 1005.6
20260906192005 89 154 2.6 10.4 0.00 0.00 0.00 29 1005.7
20260906190505 88 167 1.7 5.2 0.00 0.00 0.00 29 1006.1
20260906190005 89 178 5.2 10.4 0.00 0.00 0.00 29 1006.2
20260906185005 88 94 1.7 6.1 0.00 0.00 0.00 32 1006.3
20260906184505 88 310 2.6 6.1 0.00 0.00 0.00 29 1006.5
20260906184005 88 95 1.7 7.8 0.00 0.00 0.00 32 1006.7
20260906183505 87 79 2.6 4.3 0.00 0.00 0.00 31 1006.8
20260906183005 87 104 3.5 7.0 0.00 0.00 0.00 32 1006.9
20260906182505 86 185 1.7 6.1 0.00 0.00 0.00 33 1007.1
20260906182005 85 162 2.6 5.2 0.00 0.00 0.00 35 1007.2
20260906181505 85 159 3.5 8.7 0.00 0.00 0.00 33 1007.4
20260906181005 85 51 1.7 5.2 0.00 0.00 0.00 33 1007.4
20260906180505 84 93 1.7 5.2 0.00 0.00 0.00 34 1007.6
20260906175505 83 154 0.9 6.1 0.00 0.00 0.00 35 1007.8
20260906175005 83 160 2.6 5.2 0.00 0.00 0.00 36 1008.0
20260906174505 82 146 1.7 6.1 0.00 0.00 0.00 36 1008.1
20260906173505 81 158 2.6 6.1 0.00 0.00 0.00 39 1008.2
20260906173005 81 117 1.7 2.6 0.00 0.00 0.00 38 1008.3
20260906172005 79 129 0.9 2.6 0.00 0.00 0.00 42 1008.5
20260906171504 78 175 0.9 2.6 0.00 0.00 0.00 44 1008.6
20260906171006 77 188 1.7 4.3 0.00 0.00 0.00 45 1008.6
20260906170506 77 278 1.7 5.2 0.00 0.00 0.00 46 1008.6
20260906170005 76 172 0.9 2.6 0.00 0.00 0.00 47 1008.7
20260906165504 76 173 1.7 5.2 0.00 0.00 0.00 47 1008.7
20260906165005 75 191 1.7 2.6 0.00 0.00 0.00 48 1008.7
20260906163005 73 311 0.9 2.6 0.00 0.00 0.00 50 1008.9
20260906162505 72 315 1.7 2.6 0.00 0.00 0.00 52 1009.0
20260906162005 72 314 0.9 2.6 0.00 0.00 0.00 53 1009.1
20260906161505 71 313 0.0 2.6 0.00 0.00 0.00 53 1009.1
20260906161005 71 236 1.7 2.6 0.00 0.00 0.00 53 1009.1
20260906160505 70 229 1.7 5.2 0.00 0.00 0.00 54 1009.3
20260906160005 70 241 1.7 7.0 0.00 0.00 0.00 55 1009.2
20260906155505 70 312 1.7 2.6 0.00 0.00 0.00 55 1009.0
20260906155005 69 323 1.7 2.6 0.00 0.00 0.00 56 1009.0
20260906154505 69 316 1.7 4.3 0.00 0.00 0.00 56 1009.0
20260906154006 68 321 2.6 4.3 0.00 0.00 0.00 54 1009.0
20260906153505 68 324 1.7 4.3 0.00 0.00 0.00 58 1009.0
20260906153005 67 302 1.7 2.6 0.00 0.00 0.00 59 1009.0
20260906152505 67 282 1.7 2.6 0.00 0.00 0.00 58 1009.0
20260906152005 66 217 0.0 2.6 0.00 0.00 0.00 61 1008.9
20260906151505 66 217 0.9 4.3 0.00 0.00 0.00 62 1009.0
20260906151005 66 317 0.9 2.6 0.00 0.00 0.00 65 1009.0
20260906150505 66 323 0.9 2.6 0.00 0.00 0.00 66 1009.1
20260906150005 65 323 0.0 0.9 0.00 0.00 0.00 68 1009.2
20260906145505 65 323 1.7 2.6 0.00 0.00 0.00 68 1009.2
20260906145005 65 323 0.0 1.7 0.00 0.00 0.00 69 1009.2
20260906144505 65 322 0.9 1.7 0.00 0.00 0.00 68 1009.2
20260906144005 65 338 0.0 2.6 0.00 0.00 0.00 68 1009.2
20260906143505 65 17 0.9 1.7 0.00 0.00 0.00 65 1009.2
20260906142505 66 0 0.9 1.7 0.00 0.00 0.00 62 1009.3
20260906142004 65 0 0.9 1.7 0.00 0.00 0.00 63 1009.3
20260906141504 65 0 0.0 0.9 0.00 0.00 0.00 63 1009.5
20260906141004 66 0 0.0 0.0 0.00 0.00 0.00 61 1009.4
20260906140505 65 0 0.0 0.9 0.00 0.00 0.00 62 1009.4
20260906140005 64 0 0.0 1.7 0.00 0.00 0.00 62 1009.4
20260906135507 63 0 0.0 0.0 0.00 0.00 0.00 66 1009.4
20260906135004 61 0 0.0 0.0 0.00 0.00 0.00 68 1009.3
20260906134504 60 0 0.0 0.0 0.00 0.00 0.00 69 1009.1
20260906134004 59 15 0.0 0.0 0.00 0.00 0.00 71 1009.1
20260906133505 58 15 0.0 0.0 0.00 0.00 0.00 72 1009.0
20260906133005 58 15 0.0 0.0 0.00 0.00 0.00 73 1008.9
20260906132505 58 15 0.0 0.0 0.00 0.00 0.00 72 1008.9
20260906132005 58 15 0.0 0.0 0.00 0.00 0.00 72 1008.8
20260906131505 57 15 0.0 0.0 0.00 0.00 0.00 73 1008.8
20260906131006 57 15 0.0 0.0 0.00 0.00 0.00 74 1008.9
20260906130505 57 15 0.0 0.0 0.00 0.00 0.00 73 1008.8
20260906130004 58 15 0.0 0.0 0.00 0.00 0.00 72 1008.8
20260906125504 58 15 0.0 0.9 0.00 0.00 0.00 71 1008.9
20260906125004 59 15 0.0 0.0 0.00 0.00 0.00 70 1008.9
20260906124504 58 15 0.0 0.0 0.00 0.00 0.00 70 1008.8
20260906124005 58 15 0.0 0.0 0.00 0.00 0.00 71 1008.7
20260906123505 58 15 0.0 0.0 0.00 0.00 0.00 71 1008.7
20260906123005 58 15 0.0 0.0 0.00 0.00 0.00 71 1008.7
20260906122504 58 15 0.0 0.0 0.00 0.00 0.00 70 1008.6
20260906122004 58 15 0.0 0.0 0.00 0.00 0.00 71 1008.6
20260906121504 58 15 0.0 0.0 0.00 0.00 0.00 71 1008.5
20260906121005 58 15 0.0 0.0 0.00 0.00 0.00 72 1008.6
20260906120505 58 15 0.0 0.0 0.00 0.00 0.00 72 1008.7
20260906120005 58 15 0.0 0.0 0.00 0.00 0.00 72 1008.6
20260906115505 58 15 0.0 0.0 0.00 0.00 0.00 70 1008.5
20260906114504 58 15 0.0 0.0 0.00 0.00 0.00 71 1008.6
20260906114004 58 15 0.0 0.0 0.00 0.00 0.00 70 1008.5
20260906113504 59 15 0.0 0.9 0.00 0.00 0.00 69 1008.5
20260906112505 59 15 0.0 0.0 0.00 0.00 0.00 70 1008.3
20260906112005 59 15 0.0 0.0 0.00 0.00 0.00 70 1008.3
20260906111005 59 15 0.0 0.0 0.00 0.00 0.00 69 1008.3
20260906110504 59 15 0.0 0.9 0.00 0.00 0.00 69 1008.3
20260906110004 60 15 0.0 0.0 0.00 0.00 0.00 70 1008.3
20260906105504 60 15 0.0 0.0 0.00 0.00 0.00 70 1008.3
20260906105004 60 15 0.0 0.9 0.00 0.00 0.00 71 1008.1
20260906104504 60 15 0.9 1.7 0.00 0.00 0.00 71 1008.1
20260906104005 60 15 0.0 0.0 0.00 0.00 0.00 69 1008.0
20260906103005 61 15 0.0 0.0 0.00 0.00 0.00 66 1008.1
20260906102505 61 15 0.0 0.0 0.00 0.00 0.00 66 1008.1
20260906102005 61 16 0.0 0.0 0.00 0.00 0.00 66 1008.2
20260906101505 61 16 0.0 0.0 0.00 0.00 0.00 65 1008.1
20260906100504 61 16 0.0 0.9 0.00 0.00 0.00 68 1007.8
20260906100004 61 16 0.0 0.9 0.00 0.00 0.00 67 1007.8
20260906095504 61 16 0.0 0.9 0.00 0.00 0.00 65 1007.8
20260906095005 62 16 0.0 0.0 0.00 0.00 0.00 63 1007.7
20260906094005 62 16 0.0 0.9 0.00 0.00 0.00 61 1007.6
20260906093505 63 16 0.0 0.0 0.00 0.00 0.00 61 1007.7
20260906093004 63 16 0.0 0.0 0.00 0.00 0.00 60 1007.7
20260906092004 63 16 0.0 0.0 0.00 0.00 0.00 61 1007.6
20260906091504 63 16 0.0 0.0 0.00 0.00 0.00 61 1007.7
20260906091004 63 16 0.0 0.0 0.00 0.00 0.00 61 1007.6
20260906090504 63 16 0.0 0.0 0.00 0.00 0.00 61 1007.6
20260906090005 62 16 0.0 0.0 0.00 0.00 0.00 62 1007.5
20260906085504 63 16 0.0 0.0 0.00 0.00 0.00 62 1007.5
20260906085004 63 16 0.0 0.0 0.00 0.00 0.00 61 1007.5
20260906084504 63 16 0.0 0.0 0.00 0.00 0.00 61 1007.5
20260906084004 63 15 0.0 0.0 0.00 0.00 0.00 61 1007.5
20260906083504 63 15 0.0 0.0 0.00 0.00 0.00 60 1007.6
20260906083004 63 15 0.0 0.0 0.00 0.00 0.00 60 1007.6
20260906082504 63 15 0.0 0.0 0.00 0.00 0.00 59 1007.6
20260906081504 63 15 0.0 0.9 0.00 0.00 0.00 59 1007.7
20260906081005 64 15 0.0 0.9 0.00 0.00 0.00 59 1007.8
20260906080504 64 15 0.0 0.0 0.00 0.00 0.00 58 1007.7
20260906080004 64 15 0.0 0.0 0.00 0.00 0.00 58 1007.8
20260906075504 65 15 0.0 0.0 0.00 0.00 0.00 57 1007.8
20260906075005 65 15 0.0 0.0 0.00 0.00 0.00 56 1007.8
20260906074504 66 15 0.0 0.0 0.00 0.00 0.00 55 1007.9
20260906074004 66 15 0.0 0.0 0.00 0.00 0.00 54 1007.8
20260906073504 66 15 0.0 0.0 0.00 0.00 0.00 54 1007.8
20260906073004 67 15 0.0 0.0 0.00 0.00 0.00 53 1007.8
20260906072504 68 15 0.0 0.0 0.00 0.00 0.00 51 1007.8
20260906072005 68 15 0.0 0.0 0.00 0.00 0.00 51 1007.7
20260906071505 68 15 0.0 0.9 0.00 0.00 0.00 51 1007.7
20260906071005 68 15 0.0 0.0 0.00 0.00 0.00 50 1007.7
20260906070504 68 15 0.0 0.0 0.00 0.00 0.00 50 1007.6
20260906070004 69 15 0.0 0.0 0.00 0.00 0.00 50 1007.5
20260906065004 69 15 0.0 0.0 0.00 0.00 0.00 50 1007.5
20260906064504 69 15 0.0 0.0 0.00 0.00 0.00 51 1007.5
20260906064004 70 321 0.0 0.0 0.00 0.00 0.00 50 1007.5
20260906063504 70 323 0.0 0.0 0.00 0.00 0.00 48 1007.5
20260906063004 70 323 0.0 0.9 0.00 0.00 0.00 47 1007.4
20260906062504 71 324 0.0 0.9 0.00 0.00 0.00 48 1007.4
20260906061505 71 324 0.0 0.9 0.00 0.00 0.00 47 1007.4
20260906061004 72 324 0.0 0.9 0.00 0.00 0.00 46 1007.3
20260906060504 72 323 0.9 4.3 0.00 0.00 0.00 47 1007.4
20260906060004 71 323 2.6 5.2 0.00 0.00 0.00 53 1007.4
20260906055504 72 280 0.9 2.6 0.00 0.00 0.00 58 1007.4
20260906055004 72 277 0.0 0.0 0.00 0.00 0.00 58 1007.5
20260906054504 72 277 0.0 0.9 0.00 0.00 0.00 58 1007.5
20260906054004 72 278 0.9 2.6 0.00 0.00 0.00 59 1007.5
20260906053504 72 275 0.9 2.6 0.00 0.00 0.00 59 1007.4
20260906052004 71 265 0.0 0.0 0.00 0.00 0.00 59 1007.4
20260906051504 71 265 0.0 0.0 0.00 0.00 0.00 59 1007.5
20260906051004 71 265 0.9 1.7 0.00 0.00 0.00 58 1007.5
20260906050504 71 265 0.0 0.9 0.00 0.00 0.00 58 1007.6
20260906045504 71 204 0.0 0.9 0.00 0.00 0.00 57 1007.7
20260906045004 72 204 0.0 0.9 0.00 0.00 0.00 57 1007.7
20260906044504 72 204 0.0 0.0 0.00 0.00 0.00 56 1007.8
20260906043504 73 204 0.0 0.0 0.00 0.00 0.00 54 1007.8
20260906043004 73 204 0.0 0.9 0.00 0.00 0.00 54 1007.6
20260906042504 74 204 0.9 1.7 0.00 0.00 0.00 53 1007.8
20260906042005 74 204 0.0 0.0 0.00 0.00 0.00 52 1007.8
20260906041004 74 204 0.0 1.7 0.00 0.00 0.00 52 1007.8
20260906040504 74 204 0.0 0.0 0.00 0.00 0.00 51 1007.9
20260906040004 74 204 0.0 0.0 0.00 0.00 0.00 49 1007.8
20260906035505 74 204 0.0 0.0 0.00 0.00 0.00 49 1007.8
20260906035004 74 204 0.0 0.0 0.00 0.00 0.00 47 1007.9
20260906034504 74 204 0.0 1.7 0.00 0.00 0.00 48 1007.9
20260906034004 74 204 1.7 7.0 0.00 0.00 0.00 43 1007.9
20260906033504 74 134 0.9 2.6 0.00 0.00 0.00 45 1007.9
20260906033004 74 143 1.7 4.3 0.00 0.00 0.00 43 1007.9
20260906032504 73 232 2.6 7.0 0.00 0.00 0.00 43 1008.0
20260906032004 73 282 0.9 2.6 0.00 0.00 0.00 40 1008.0
20260906031004 74 300 0.9 11.3 0.00 0.00 0.00 45 1007.7
20260906030008 75 183 0.0 1.7 0.00 0.00 0.00 36 1007.0
20260906025505 75 183 0.0 0.0 0.00 0.00 0.00 35 1006.6
20260906024006 76 184 0.0 0.0 0.00 0.00 0.00 33 1006.4
20260906023006 76 184 0.0 2.6 0.00 0.00 0.00 34 1006.3
20260906021006 77 185 0.0 0.0 0.00 0.00 0.00 31 1006.3
20260906020006 77 184 0.0 0.0 0.00 0.00 0.00 31 1006.2
20260906015506 78 184 0.0 0.0 0.00 0.00 0.00 31 1006.2
20260906015006 78 17 0.0 0.0 0.00 0.00 0.00 30 1006.2
20260906014506 79 13 0.0 0.0 0.00 0.00 0.00 29 1006.0
20260906014006 80 184 0.0 0.0 0.00 0.00 0.00 29 1006.0
20260906013506 80 13 0.0 0.9 0.00 0.00 0.00 28 1006.0
20260906013005 81 175 0.0 1.7 0.00 0.00 0.00 28 1006.0
20260906012006 82 184 1.7 2.6 0.00 0.00 0.00 26 1006.0
20260906011506 83 179 1.7 2.6 0.00 0.00 0.00 26 1005.9
20260906011005 83 209 1.7 2.6 0.00 0.00 0.00 26 1006.0
20260906010506 84 238 3.5 6.1 0.00 0.00 0.00 25 1006.0
20260906010006 85 212 0.9 1.7 0.00 0.00 0.00 25 1006.0
20260906005005 86 0 0.9 2.6 0.00 0.00 0.00 24 1006.1
20260906004506 86 0 1.7 2.6 0.00 0.00 0.00 24 1006.2
20260906004006 86 238 2.6 5.2 0.00 0.00 0.00 24 1006.2
20260906003006 86 236 3.5 7.8 0.00 0.00 0.00 24 1006.2
20260906002506 86 226 3.5 7.0 0.00 0.00 0.00 24 1006.2
20260906002007 87 204 3.5 7.8 0.00 0.00 0.00 24 1006.2
20260906001505 87 161 5.2 8.7 0.00 0.00 0.00 23 1006.3
20260905235506 89 222 2.6 5.2 0.00 0.00 0.00 24 1006.2
20260905235005 89 179 1.7 5.2 0.00 0.00 0.00 24 1006.2
20260905234006 88 177 2.6 8.7 0.00 0.00 0.00 24 1006.3
20260905232506 86 150 3.5 10.4 0.00 0.00 0.00 26 1006.2
20260905232006 86 198 2.6 6.1 0.00 0.00 0.00 26 1006.3
20260905231506 86 0 3.5 7.0 0.00 0.00 0.00 25 1006.2
20260905231006 86 175 1.7 4.3 0.00 0.00 0.00 25 1006.2
20260905230506 87 178 1.7 2.6 0.00 0.00 0.00 24 1006.2
20260905230006 87 176 1.7 2.6 0.00 0.00 0.00 23 1006.1
20260905225505 88 176 2.6 8.7 0.00 0.00 0.00 23 1006.1
20260905225006 89 0 0.9 2.6 0.00 0.00 0.00 23 1006.1
20260905224506 89 349 0.0 1.7 0.00 0.00 0.00 23 1006.1
20260905224006 88 148 1.7 2.6 0.00 0.00 0.00 24 1006.2
20260905223505 88 3 0.0 1.7 0.00 0.00 0.00 24 1006.3
20260905222505 89 140 0.9 2.6 0.00 0.00 0.00 22 1006.2
20260905221505 89 106 0.0 1.7 0.00 0.00 0.00 23 1006.3
20260905221005 90 102 1.7 2.6 0.00 0.00 0.00 22 1006.3
20260905220506 90 94 1.7 2.6 0.00 0.00 0.00 21 1006.3
20260905220006 89 105 1.7 5.2 0.00 0.00 0.00 22 1006.3